[Iaude] MPEC R82: 2016 RN17 [a=1.21,e=0.22,i=37.7,H=23.3]

mpec at mpc.eps.harvard.edu mpec at mpc.eps.harvard.edu
Wed Sep 7 19:09:16 EDT 2016


M.P.E.C. 2016-R82                                Issued 2016 Sept. 7, 23:06 UT
 
     The Minor Planet Electronic Circulars contain information on unusual
         minor planets and routine data on comets.  They are published
    on behalf of Division F of the International Astronomical Union by the
          Minor Planet Center, Smithsonian Astrophysical Observatory,
                          Cambridge, MA 02138, U.S.A.

             Prepared using the Tamkin Foundation Computer Network

                              MPC at CFA.HARVARD.EDU
            URL http://www.minorplanetcenter.net/    ISSN 1523-6714


                                   2016 RN17
 
Observations:
     K16R17N* C2016 09 05.31770 22 05 00.78 -14 37 17.8          19.1 VqER082703
     K16R17N  C2016 09 05.32781 22 04 47.34 -14 33 52.5          18.8 VqER082703
     K16R17N  C2016 09 05.33285 22 04 40.68 -14 32 11.5          18.6 VqER082703
     K16R17N  C2016 09 05.35247 22 04 14.99 -14 25 38.3          18.7 VqER082G96
     K16R17N  C2016 09 05.35384 22 04 13.15 -14 25 10.6          18.6 VqER082G96
     K16R17N  C2016 09 05.35524 22 04 11.34 -14 24 42.9          18.8 VqER082G96
     K16R17N  C2016 09 05.35659 22 04 09.57 -14 24 15.9          18.9 VqER082G96
     K16R17N HC2016 09 05.36261 22 04 01.66 -14 22 13.7          19.3 VoER082691
     K16R17N  C2016 09 05.36857 22 03 53.81 -14 20 15.5          19.7 VqER082703
     K16R17N  C2016 09 05.37168 22 03 49.74 -14 19 11.5          18.8 VqER082703
     K16R17N HC2016 09 05.37231 22 03 49.01 -14 18 59.3          19.2 VoER082691
     K16R17N  C2016 09 05.39218 22 03 22.80 -14 12 18.8          18.7 VqER082703
     K16R17N  C2016 09 05.39316 22 03 21.59 -14 11 58.4          18.4 VqER082703
     K16R17N  C2016 09 05.39511 22 03 18.98 -14 11 17.2          18.4 VqER082703
     K16R17N KC2016 09 05.94602 21 51 37.66 -11 03 39.5          18.7 RtER082104
     K16R17N KC2016 09 05.95011 21 51 32.26 -11 02 14.4          18.7 RtER082104
     K16R17N KC2016 09 05.95411 21 51 27.02 -11 00 51.1          18.7 RtER082104
     K16R17N  C2016 09 06.18506 21 46 35.75 -09 40 00.7          18.9 VqER082G96
     K16R17N  C2016 09 06.19212 21 46 26.50 -09 37 32.6          18.9 VqER082G96
     K16R17N  C2016 09 06.19918 21 46 17.23 -09 35 03.5          18.9 VqER082G96
     K16R17N  C2016 09 06.20624 21 46 07.96 -09 32 36.8          18.3 VqER082G96
     K16R17N KC2016 09 06.26095021 44 54.06 -09 13 30.9          19.2 VuER082H21
     K16R17N  C2016 09 06.26333 21 44 53.06 -09 12 32.4          19.1 VqER082703
     K16R17N KC2016 09 06.26338921 44 50.86 -09 12 39.3          19.1 VuER082H21
     K16R17N  C2016 09 06.26505 21 44 50.89 -09 11 54.7                qER082703
     K16R17N KC2016 09 06.26567421 44 47.88 -09 11 50.9          19.2 VuER082H21
     K16R17N KC2016 09 06.80421 21 33 29.84 -06 01 13.2          19.5  qER082113
     K16R17N KC2016 09 06.81152 21 33 20.45 -05 58 37.4          19.1  qER082113
     K16R17N KC2016 09 06.81518 21 33 15.78 -05 57 19.2          19.0  qER082113
     K16R17N  C2016 09 06.83668 21 32 48.16 -05 49 40.4          20.1 VSER082033
     K16R17N  C2016 09 06.83800 21 32 46.47 -05 49 12.5          20.1 VSER082033
     K16R17N  C2016 09 06.83933 21 32 44.76 -05 48 44.0          20.2 VSER082033
     K16R17N KC2016 09 06.84624 21 32 35.53 -05 46 16.1          18.7 VSER082C43
     K16R17N KC2016 09 06.84842 21 32 32.89 -05 45 30.9          19.4 VSER082C43
     K16R17N KC2016 09 06.85060 21 32 30.09 -05 44 43.9          19.2 VSER082C43
     K16R17N KC2016 09 06.85191 21 32 28.46 -05 44 15.6          19.1 VSER082C43
     K16R17N KC2016 09 06.85388 21 32 25.86 -05 43 33.5          19.3 VSER082C43
     K16R17N KC2016 09 06.90767 21 31 16.65 -05 24 17.8          18.4 VtER082595
     K16R17N KC2016 09 06.91521 21 31 06.90 -05 21 36.9          18.7 VtER082595
     K16R17N KC2016 09 06.91572 21 31 06.63 -05 21 24.9          19.1 RqER082K38
     K16R17N  C2016 09 06.92013 21 31 00.71 -05 19 56.6          19.2 VSER082033
     K16R17N  C2016 09 06.92145 21 30 59.01 -05 19 28.4          19.2 VSER082033
     K16R17N  C2016 09 06.92278 21 30 57.33 -05 19 00.3          19.1 VSER082033
     K16R17N KC2016 09 06.93710 21 30 39.07 -05 13 47.4          17.5 RqER082K38
     K16R17N KC2016 09 06.98023 21 29 43.51 -04 58 25.1          18.9 RqER082K38
     K16R17N KC2016 09 06.99442 21 29 25.31 -04 53 21.0          19.0 RqER082K38
     K16R17N KC2016 09 07.80862 21 12 40.96 -00 04 32.2          19.3 VqER082151
     K16R17N KC2016 09 07.81514 21 12 32.81 -00 02 15.6          19.0 VqER082151
     K16R17N KC2016 09 07.81677 21 12 30.77 -00 01 40.8          19.1 VqER082151
     K16R17N KC2016 09 07.81841 21 12 28.74 -00 01 06.1          19.1 VqER082151
     K16R17N  C2016 09 07.85192 21 11 46.45 +00 10 37.4                qER082246
     K16R17N  C2016 09 07.85204 21 11 46.00 +00 10 40.8          19.2 RqER082246
     K16R17N  C2016 09 07.85217 21 11 46.13 +00 10 41.6                qER082246
     K16R17N  C2016 09 07.85230 21 11 45.99 +00 10 45.0          19.0 RqER082246
     K16R17N  C2016 09 07.85242 21 11 45.79 +00 10 48.4                qER082246
     K16R17N  C2016 09 07.85254 21 11 45.64 +00 10 50.3                qER082246
     K16R17N KC2016 09 07.86322 21 11 31.89 +00 14 36.2          18.7 RoER082461
     K16R17N KC2016 09 07.86664 21 11 27.60 +00 15 48.5          18.7 RoER082461
     K16R17N KC2016 09 07.87013 21 11 23.23 +00 17 01.9          18.6 RoER082461
 
Observer details:
033 Karl Schwarzschild Observatory, Tautenburg.  Observers B. Stecklum,
    C. Hoegner.  Measurer B. Stecklum.  1.34-m f/3 Schmidt + CCD.
104 San Marcello Pistoiese.  Observer P. Bacci.  Measurers P. Bacci, L. Tesi,
    G. Fagioli.  0.60-m f/4 reflector + CCD.
113 Volkssternwarte Drebach, Schoenbrunn.  Observer G. Lehmann.  0.5-m f/4.6
    reflector + CCD.
151 Eschenberg Observatory, Winterthur.  Observer M. Griesser.  0.60-m f/3.8
    astrograph + CCD.
246 Klet Observatory-KLENOT.  Observers M. Tichy, J. Ticha.  Measurer M. Tichy.
    1.06-m KLENOT Telescope + CCD.
461 University of Szeged, Piszkesteto Stn. (Konkoly).  Observer K. Sarneczky.
    0.60-m Schmidt + CCD.
595 Farra d'Isonzo.  Observers F. Buso, E. Pettarin.  Measurer F. Buso.
    0.61-m f/4.0 reflector + CCD.
691 Steward Observatory, Kitt Peak.  Observer T. H. Bressi.  0.9-m f/3
    reflector + CCD.
703 Catalina Sky Survey.  Observers G. J. Leonard, R. A. Kowalski.  Measurers
    E. J. Christensen, D. C. Fuls, A. R. Gibbs, A. D. Grauer, J. A. Johnson,
    R. A. Kowalski, S. M. Larson, G. J. Leonard, R. G. Matheny, R. L. Seaman,
    F. C. Shelly.  0.68-m Schmidt + CCD.
C43 Hoyerswerda.  Observer P. Lindner.  0.30-m f/6.3 Schmidt-Cassegrain + CCD.
G96 Mt. Lemmon Survey.  Observers R. G. Matheny, D. C. Fuls.  Measurers
    E. J. Christensen, D. C. Fuls, A. R. Gibbs, A. D. Grauer, J. A. Johnson,
    R. A. Kowalski, S. M. Larson, G. J. Leonard, R. G. Matheny, R. L. Seaman,
    F. C. Shelly.  1.5-m reflector + 10K CCD.
H21 Astronomical Research Observatory, Westfield.  Observer R. Holmes.
    Measurers S. Foglia, L. Buzzi, T. Linder, R. Holmes, S. T. Linder.  0.76-m
    f/3.0 astrograph + CCD, 0.81-m f/4.0 astrograph + CCD.
K38 M57 Observatory, Saltrio.  Observer G. Baj.  0.30-m f/8 Ritchey-Chretien
    + CCD.
 
Orbital elements:
2016 RN17                                                Earth MOID = 0.0756 AU
Epoch 2016 July 31.0 TT = JDT 2457600.5                 MPC
M 280.87849              (2000.0)            P               Q
n   0.74072863     Peri.   75.70328     +0.47070796     -0.86194863
a   1.2097528      Node   342.08097     +0.36320101     +0.38386257
e   0.2246866      Incl.   37.74884     +0.80406408     +0.33120097
P   1.33           H   23.3           G   0.15           U   8
Residuals in seconds of arc
160905 703  1.5+  2.3-    160906 G96  0.3-  1.3-    160906 033  0.2-  0.3+
160905 703  0.5-  0.6+    160906 H21  0.4+  0.2-    160906 033  0.2-  0.3+
160905 703  0.9-  0.5+    160906 703  0.7+  0.1+    160906 033  0.2+  0.0
160905 G96  0.5+  0.0     160906 H21  0.2+  0.2-    160906 K38  0.2+  0.5+
160905 G96  0.1-  0.1+    160906 703  2.0+  1.5+    160906 K38  0.3-  0.3-
160905 G96  0.3+  0.3-    160906 H21  0.3+  0.1-    160906 K38  0.0   0.0
160905 G96  0.3+  0.4-    160906 113  0.5-  0.4+    160907 151  0.1+  0.2+
160905 691  0.6-  0.2+    160906 113  0.3-  0.2+    160907 151  0.1-  0.6-
160905 703  0.2-  1.1-    160906 113  0.2+  0.3+    160907 151  0.2-  0.1-
160905 703  0.1-  0.3+    160906 033  0.2-  0.3+    160907 151  0.1+  0.1+
160905 691  0.5+  0.6-    160906 033  0.1-  0.0     160907 246  0.5+  0.2-
160905 703  1.5-  0.3-    160906 033  0.1-  0.1+    160907 246 (4.0-  0.7+)
160905 703  0.5-  0.3+    160906 C43  2.0-  0.9+    160907 246  0.4+  1.3-
160905 703  1.3-  2.1+    160906 C43  0.5+  0.4-    160907 246  0.7+  0.6-
160905 104  0.5+  0.1+    160906 C43  0.6+  0.0     160907 246  0.1-  0.3+
160905 104  0.1-  0.0     160906 C43  1.4+  0.3+    160907 246  0.1-  0.4-
160905 104  0.0   0.0     160906 C43  0.5+  0.3+    160907 461  0.5+  0.3-
160906 G96  0.1-  0.1-    160906 595  0.9+  0.0     160907 461  0.3+  0.1+
160906 G96  0.1-  0.3-    160906 595  0.6+  0.3-    160907 461  0.1+  0.1+
160906 G96  0.2-  0.5+    160906 K38  0.1-  0.3+

Ephemeris:
2016 RN17                a,e,i = 1.21, 0.22, 38                  q = 0.9379
Date    TT    R. A. (2000) Decl.     Delta      r     Elong.  Phase     V
2016 08 08    02 12 31.9 -47 20 16   0.3522  1.1910   111.9    52.2    23.3
...
2016 08 23    01 19 02.9 -44 46 35   0.1902  1.1371   127.5    44.9    21.7
...
2016 08 31    23 48 24.0 -35 34 17   0.1140  1.1084   148.6    28.3    20.1
...
2016 09 06    21 50 30.4 -10 43 45   0.08283 1.0872   162.4    16.3    18.9
2016 09 07    21 29 21.8 -04 50 18   0.08227 1.0837   156.6    21.7    19.1
2016 09 08    21 08 46.6 +01 03 25   0.08331 1.0803   149.8    28.0    19.3
...
2016 09 14    19 29 09.7 +26 49 29   0.1157  1.0598   114.9    59.4    20.9
...
2016 09 22    18 18 08.2 +38 59 41   0.1889  1.0338    93.9    75.6    22.4
...
2016 10 07    17 24 15.6 +45 00 53   0.3353  0.9909    78.9    81.7    23.8

A. U. Tomatic                (C) Copyright 2016 MPC           M.P.E.C. 2016-R82




More information about the Iaude mailing list